Epoch = 2012 Dec. 19.0 TT T = 2012 Dec. 29.13025 TT Peri. = 267.52913 e = 0.2811155 Node = 309.73434 2000.0 q = 3.3685450 AU Incl. = 21.66903 a = 4.6857947 AU n = 0.09716933 P = 10.14 years
H = 15.5 G = 0.15